Content
SEND FEEDBACK

Daily
Averages
Monthly
Summary
Brazil

SÃO PAULO, SÃO PAULO


Home > South America > Brazil > São Paulo
Elevation: 2634 feet     Latitude: 23 37S     Longitude: 046 39W

WEATHER
 
SELECT A DAY
Number of Records: 158,419;   Date Range: 6/30/96 - 8/31/14
 
SHARE

PRINT THIS DATA

[ ← Previous Day ]
WEATHER ALMANAC - AUGUST 19, 2013
[ Next Day → ]
[ °C ]   °F
Weather ElementAverageHighLow
Temperature60.2 °F69.8 °F (1:00 pm)55.4 °F (1:00 am)
Dewpoint51.5 °F55.4 °F (4:00 pm)48.2 °F (1:00 am)
Humidity72.6 %82 % (4:00 am)49 % (2:00 pm)
Barometer30.28 in30.33 in (8:00 am)30.21 in (4:00 pm)
Wind Speed8.5 mph13.8 mph (4:00 pm)
Weather ElementAverage
Visibility6.5 mi
Wind DirectionESE (111.1 °)

Weather ElementTotal
Precipitation---
Heating Degree Days2.4 (Base 65)
Growing Degree Days12.6 (Base 50)
Averaged from 27 records on August 19, 2013
WEATHER CONDITIONS BREAKOUT
WIND DIRECTION BREAKOUT
WEATHER BY HOUR - AUGUST 19, 2013
[ °C ]   °F
Local TimeTemperatureDewpointHumidityBarometerVisibilityWind DirectionWind SpeedGust SpeedPrecipitationEventsConditions
1:00 AM55.4 °F48.2 °F77 %30.30 inEast (100°)9.2 mphClear
2:00 AM55.4 °F48.2 °F77 %30.27 inESE (120°)5.8 mphClear
3:00 AM56.0 °F49.0 °F70 %12.0 miEast (90°)6.9 mphMostly Cloudy
3:00 AM55.4 °F48.2 °F77 %30.27 in6.2 miEast (90°)6.9 mphMostly Cloudy
4:00 AM55.4 °F50.0 °F82 %30.27 in6.2 miSSE (150°)5.8 mphMostly Cloudy
5:00 AM55.4 °F50.0 °F82 %30.27 in6.2 miEast (90°)3.5 mphMostly Cloudy
6:00 AM55.4 °F50.0 °F82 %30.27 in6.2 miESE (110°)5.8 mphOvercast
7:00 AM57.2 °F50.0 °F77 %30.30 in6.2 miEast (90°)8.1 mphOvercast
8:00 AM57.2 °F51.8 °F82 %30.33 in6.2 miEast (100°)6.9 mphOvercast
9:00 AM60.0 °F51.0 °F63 %12.0 miEast (100°)6.9 mphOvercast
9:00 AM60.8 °F50.0 °F68 %30.33 in6.2 miEast (100°)6.9 mphMostly Cloudy
10:00 AM60.8 °F50.0 °F68 %30.33 in6.2 miENE (70°)8.1 mphOvercast
11:00 AM62.6 °F50.0 °F63 %30.33 in6.2 miENE (60°)9.2 mphMostly Cloudy
12:00 PM66.2 °F51.8 °F60 %30.30 in6.2 miEast (80°)9.2 mphScattered Clouds
1:00 PM69.8 °F51.8 °F53 %30.27 in6.2 miESE (110°)10.4 mphScattered Clouds
2:00 PM69.8 °F50.0 °F49 %30.24 in6.2 miENE (60°)6.9 mphMostly Cloudy
3:00 PM67.0 °F54.0 °F54 %12.0 miSE (140°)12.7 mphMostly Cloudy
3:00 PM66.2 °F53.6 °F64 %30.24 in6.2 miSE (140°)12.7 mphMostly Cloudy
4:00 PM64.4 °F55.4 °F73 %30.21 in6.2 miSSE (150°)13.8 mphPartly Cloudy
5:00 PM60.8 °F53.6 °F77 %30.24 in6.2 miSE (140°)13.8 mphMostly Cloudy
6:00 PM59.0 °F53.6 °F82 %30.27 in5.0 miSE (140°)12.7 mphOvercast
7:00 PM59.0 °F53.6 °F82 %30.27 in3.7 miSSE (150°)10.4 mphOvercast
8:00 PM59.0 °F53.6 °F82 %30.30 in3.7 miSE (130°)8.1 mphOvercast
9:00 PM59.0 °F53.0 °F74 %4.0 miSE (130°)8.1 mphHaze
9:00 PM59.0 °F53.6 °F82 %30.30 in3.7 miSE (130°)8.1 mphOvercast
10:00 PM59.0 °F53.6 °F82 %30.30 in6.2 miSE (130°)5.8 mphOvercast
11:00 PM59.0 °F51.8 °F77 %30.30 in6.2 miEast (100°)5.8 mphScattered Clouds
Hourly data recorded from SBSP, located miles away from São Paulo, São Paulo







STORIES FROM OUR PARTNERS